{"data":{"norad_id":31307,"intl_designator":"2007-016B","name":"GALAXY 17 (G-17)","alt_names":[],"object_type":"PAYLOAD","status":"ACTIVE","operator":null,"country":"US","launch_date":"2007-05-04","launch_site_code":"FRGUI","launch_vehicle":null,"mission":null,"orbit_class":"UNKNOWN","rcs_meters":12.6832,"size_class":null,"mass_kg":null,"dimensions":null,"purposes":["comms"],"wikipedia_slug":null,"has_3d_model":false,"image_url":null,"decayed_at":null,"tle_current":{"epoch":"2026-09-19T21:42:01.609920Z","epoch_age_seconds":65958,"freshness":"FRESH","line1":"1 31307U 07016B   26262.90418530 -.00000210  00000+0  00000+0 0  9998","line2":"2 31307   3.2038  78.6342 0003320 125.6031  35.0947  1.00272179 70754","mean_motion":1.00272179,"eccentricity":0.000332,"inclination_deg":3.2038,"raan_deg":78.6342,"arg_perigee_deg":125.6031,"mean_anomaly_deg":35.0947,"bstar":0,"rev_number":7075,"period_min":1436.0912611663,"perigee_km":35772.485854709,"apogee_km":35800.483163391,"semimajor_km":42164.62150905,"source":"CELESTRAK","updated_at":"2026-09-20T09:00:35.516362Z"}}}